Flag for Chile Weather past 2 weeks in Osorno, Chile

Now
46 °F

Sprinkles. Overcast.


Feels Like: 42 °F
Forecast: N/A
Wind: 8 mph from West

Location: Puerto Montt Airport

Current Time: Aug 2, 2015 at 7:45:19 PM

Latest Report: Aug 2, 2015 at 7:00 PM


Visibility: 5 mi

Pressure: 29.89 "Hg

Humidity: 87%

Dew point: 43 °F

Location of OsornoLocation

Historic Weather in Osorno — Graph

°F

Osorno temperature yesterday

Maximum temperature yesterday: 50 °F (at 4:00 PM)
Minimum temperature yesterday: 43 °F (at 6:00 AM)
Average temperature yesterday: 46 °F

Past Weeks' High & Low Weather Summary

 TemperatureHumidityPressure
High57 °F (Jul 29, 3:00 PM)100% (Jul 19, 3:00 AM)30.48 "Hg (Jul 19, 3:00 AM)
Low32 °F (Jul 20, 12:00 AM)57% (Jul 19, 3:00 PM)29.45 "Hg (Jul 26, 12:00 AM)
Average48 °F89%29.92 "Hg
* Reported Jul 18 6:00 PM — Aug 2 6:00 PM, Osorno, Weather by CustomWeather, © 2015

Note: Actual official high and low records may vary slightly from our data, if they occured in-between our weather recording intervals... More about our weather records

Advertising

Osorno weather history for previous 24 hours

 ConditionsComfort  
Time TempWeatherWind HumidityBarometerVisibility
6:00 PM
Sun, Aug 2
46 °FPassing clouds.7 mph93%29.89 "HgN/A
5:00 PM52 °FPartly sunny.10 mph72%29.86 "HgN/A
4:00 PM52 °FScattered clouds.16 mph67%29.83 "HgN/A
3:00 PM50 °FScattered clouds.14 mph76%29.80 "HgN/A
2:00 PM46 °FSprinkles. Partly sunny.13 mph87%29.83 "Hg4 mi
1:00 PM52 °FScattered clouds.10 mph72%29.80 "HgN/A
12:00 PM48 °FPartly sunny.13 mph82%29.80 "HgN/A
11:00 AM46 °FSprinkles. Partly sunny.13 mph82%29.80 "Hg5 mi
10:00 AM43 °FScattered clouds.10 mph87%29.77 "HgN/A
9:00 AM43 °FSprinkles. Partly sunny.7 mph87%29.74 "Hg5 mi
8:00 AM43 °FScattered clouds.9 mph81%29.71 "HgN/A
7:00 AM45 °FPassing clouds.9 mph81%29.68 "HgN/A
6:00 AM45 °FPassing clouds.10 mph87%29.62 "HgN/A
5:00 AM45 °FPassing clouds.7 mph87%29.62 "HgN/A
4:00 AM45 °FPassing clouds.6 mph87%29.62 "HgN/A
3:00 AM46 °FPassing clouds.16 mph87%29.56 "HgN/A
2:00 AM46 °FSprinkles. Passing clouds.18 mph87%29.56 "Hg3 mi
1:00 AM46 °FSprinkles. Passing clouds.16 mph87%29.56 "HgN/A
12:00 AM45 °FPassing clouds.16 mph93%29.56 "HgN/A
11:00 PM
Sat, Aug 1
45 °FPassing clouds.17 mph93%29.59 "HgN/A
10:00 PM46 °FSprinkles. Overcast.15 mph87%29.59 "Hg2 mi
9:00 PM45 °FOvercast.13 mph93%29.56 "HgN/A
8:00 PM46 °FSprinkles. Passing clouds.16 mph93%29.56 "Hg4 mi
7:00 PM46 °FSprinkles. Mostly cloudy.13 mph87%29.56 "Hg4 mi
Weather by CustomWeather, © 2015

See weather overviewHow to use our weather pages